Location: Maignaut
(43.8886°N, 0.4051°E)
Time: 19:16:14
(UTC+00:00)

BREEZE-M DEB (TANK) - Pass Details

Date: 17 January 2021
Orbit: 310 x 13785 km, 49.6° (Epoch: 27 February)

Event Time Altitude Azimuth Distance (km) Brightness Sun altitude
Rises 18:46:14 0° 290° (WNW) 2,188 6.9 -20.7°
Reaches altitude 10° 18:48:18 10° 307° (NW) 1,208 5.2 -21.1°
Enters shadow 18:49:03 16° 322° (NW) 923 4.3 -21.2°
